Location: Newark
(59.8814°N, 10.8258°E)
Time: 11:05:16
(UTC+00:00)

Envisat - Pass Details

Date: 30 January 2020
Orbit: 764 x 766 km, 98.1° (Epoch: 25 February)

Event Time Altitude Azimuth Distance (km) Brightness Sun altitude
Rises 06:20:54 0° 17° (NNE) 3,249 6.2 -9.1°
Reaches altitude 10° 06:23:13 10° 18° (NNE) 2,319 5.5 -8.9°
Maximum altitude 06:28:21 81° 107° (ESE) 783 3.2 -8.3°
Drops below altitude 10° 06:33:26 10° 195° (SSW) 2,302 5.6 -7.7°
Sets 06:35:44 0° 196° (SSW) 3,224 6.3 -7.4°
